RYR29F EGCC-EGKK

Flight info

Callsign RYR29F
Flight time 0h 34m
Altitude 19000
Route LISTO L612 HON N859 KIDLI
Aircraft B738/M-SDE2E3FGHIRWXY/LB1

Departure

Time 2026-05-04 11:56
Airport Manchester Airport (EGCC)

Arrival

Time 2026-05-04 12:31
Airport London Gatwick Airport (EGKK)
Time Latitude Longitude Altitude Speed Heading
2026-05-04 11:41 53.35937 -2.27316 236 ft 0 kts 185°
2026-05-04 11:48 53.35916 -2.27318 237 ft 6 kts 182°
2026-05-04 11:49 53.35881 -2.27319 235 ft 9 kts 180°
2026-05-04 11:49 53.35787 -2.27330 232 ft 9 kts 211°
2026-05-04 11:49 53.35747 -2.27410 232 ft 10 kts 229°
2026-05-04 11:49 53.35702 -2.27503 232 ft 11 kts 231°
2026-05-04 11:50 53.35649 -2.27607 232 ft 12 kts 226°
2026-05-04 11:50 53.35584 -2.27716 232 ft 14 kts 225°
2026-05-04 11:50 53.35512 -2.27833 232 ft 15 kts 222°
2026-05-04 11:50 53.35434 -2.27959 232 ft 17 kts 224°
2026-05-04 11:51 53.35347 -2.28101 232 ft 18 kts 224°
2026-05-04 11:51 53.35262 -2.28243 232 ft 18 kts 228°
2026-05-04 11:51 53.35184 -2.28401 232 ft 18 kts 231°
2026-05-04 11:51 53.35105 -2.28561 232 ft 18 kts 231°
2026-05-04 11:52 53.35034 -2.28707 232 ft 14 kts 229°
2026-05-04 11:52 53.34965 -2.28828 232 ft 15 kts 225°
2026-05-04 11:52 53.34890 -2.28960 232 ft 16 kts 226°
2026-05-04 11:52 53.34823 -2.29080 232 ft 13 kts 228°
2026-05-04 11:53 53.34766 -2.29196 232 ft 13 kts 230°
2026-05-04 11:53 53.34732 -2.29266 232 ft 11 kts 229°
2026-05-04 11:53 53.34680 -2.29328 232 ft 1 kts 204°
2026-05-04 11:53 53.34675 -2.29331 232 ft 0 kts 202°
2026-05-04 11:55 53.34552 -2.29194 233 ft 0 kts 52°
2026-05-04 11:55 53.34590 -2.29121 232 ft 32 kts 50°
2026-05-04 11:56 53.34897 -2.28484 234 ft 106 kts 51°
2026-05-04 11:56 53.35492 -2.27246 312 ft 158 kts 52°
2026-05-04 11:56 53.36193 -2.25728 893 ft 170 kts 50°
2026-05-04 11:56 53.36946 -2.24219 1821 ft 168 kts 50°
2026-05-04 11:57 53.37550 -2.22556 2622 ft 170 kts 76°
2026-05-04 11:57 53.37508 -2.20600 3407 ft 172 kts 110°
2026-05-04 11:57 53.36790 -2.18919 3871 ft 196 kts 140°
2026-05-04 11:57 53.35597 -2.17534 4120 ft 222 kts 148°
2026-05-04 11:58 53.34081 -2.16753 4436 ft 240 kts 179°
2026-05-04 11:58 53.32381 -2.16963 4955 ft 246 kts 186°
2026-05-04 11:58 53.30669 -2.17268 5053 ft 248 kts 186°
2026-05-04 11:58 53.28948 -2.17564 5065 ft 248 kts 186°
2026-05-04 11:59 53.27227 -2.17855 5070 ft 248 kts 186°
2026-05-04 11:59 53.25493 -2.18139 5308 ft 252 kts 186°
2026-05-04 11:59 53.23695 -2.18426 5740 ft 267 kts 186°
2026-05-04 11:59 53.22070 -2.18684 6346 ft 274 kts 186°
2026-05-04 12:00 53.20170 -2.18984 7288 ft 273 kts 186°
2026-05-04 12:00 53.18283 -2.19280 8138 ft 276 kts 186°
2026-05-04 12:00 53.16983 -2.19483 8700 ft 279 kts 186°
2026-05-04 12:00 53.15033 -2.19761 9541 ft 284 kts 182°
2026-05-04 12:01 53.13084 -2.19153 10315 ft 289 kts 160°
2026-05-04 12:01 53.10490 -2.17407 10702 ft 320 kts 158°
2026-05-04 12:02 52.96389 -2.07538 13801 ft 385 kts 158°
2026-05-04 12:03 52.94701 -2.06374 14233 ft 388 kts 158°
2026-05-04 12:03 52.92197 -2.04652 14866 ft 391 kts 158°
2026-05-04 12:03 52.89669 -2.02917 15514 ft 394 kts 158°
2026-05-04 12:03 52.87157 -2.01195 16155 ft 397 kts 158°
2026-05-04 12:04 52.84595 -1.99442 16813 ft 400 kts 158°
2026-05-04 12:04 52.82003 -1.97671 17070 ft 404 kts 158°
2026-05-04 12:04 52.79349 -1.95861 17071 ft 418 kts 158°
2026-05-04 12:04 52.76647 -1.94020 17071 ft 423 kts 158°
2026-05-04 12:05 52.73893 -1.92145 17351 ft 428 kts 158°
2026-05-04 12:05 52.71153 -1.90282 18057 ft 426 kts 158°
2026-05-04 12:05 52.68415 -1.88422 18720 ft 423 kts 158°
2026-05-04 12:05 52.65691 -1.86574 19015 ft 427 kts 158°
2026-05-04 12:06 52.62917 -1.84696 19053 ft 434 kts 158°
2026-05-04 12:06 52.60110 -1.82799 19050 ft 434 kts 158°
2026-05-04 12:06 52.57332 -1.80923 19040 ft 429 kts 158°
2026-05-04 12:06 52.54583 -1.79069 19041 ft 427 kts 158°
2026-05-04 12:07 52.51829 -1.77214 19049 ft 427 kts 158°
2026-05-04 12:07 52.49112 -1.75387 19055 ft 427 kts 158°
2026-05-04 12:07 52.46357 -1.73537 19053 ft 429 kts 158°
2026-05-04 12:07 52.43558 -1.71659 19056 ft 430 kts 158°
2026-05-04 12:08 52.40782 -1.69798 19048 ft 431 kts 158°
2026-05-04 12:08 52.38011 -1.67945 19054 ft 432 kts 159°
2026-05-04 12:08 52.35224 -1.66113 19044 ft 432 kts 160°
2026-05-04 12:08 52.32379 -1.64506 19052 ft 432 kts 162°
2026-05-04 12:09 52.29530 -1.63024 19057 ft 431 kts 163°
2026-05-04 12:09 52.26655 -1.61569 19053 ft 431 kts 163°
2026-05-04 12:09 52.23787 -1.60120 19045 ft 430 kts 163°
2026-05-04 12:09 52.20961 -1.58680 19052 ft 430 kts 163°
2026-05-04 12:10 52.18078 -1.57200 19044 ft 429 kts 163°
2026-05-04 12:10 52.15260 -1.55743 19043 ft 429 kts 163°
2026-05-04 12:10 52.12428 -1.54276 19057 ft 428 kts 163°
2026-05-04 12:10 52.09600 -1.52810 19040 ft 428 kts 163°
2026-05-04 12:11 52.06758 -1.51339 19040 ft 424 kts 163°
2026-05-04 12:11 52.03984 -1.49903 19029 ft 409 kts 163°
2026-05-04 12:11 52.01284 -1.48509 19034 ft 404 kts 163°
2026-05-04 12:11 51.98606 -1.47128 19053 ft 404 kts 163°
2026-05-04 12:12 51.95950 -1.45760 18985 ft 405 kts 163°
2026-05-04 12:12 51.93258 -1.44376 18534 ft 403 kts 163°
2026-05-04 12:12 51.90589 -1.43005 17941 ft 400 kts 163°
2026-05-04 12:12 51.87961 -1.41656 17374 ft 395 kts 163°
2026-05-04 12:13 51.85343 -1.40314 16789 ft 391 kts 163°
2026-05-04 12:14 51.68785 -1.27523 14489 ft 384 kts 148°
2026-05-04 12:15 51.66558 -1.25165 14325 ft 381 kts 148°
2026-05-04 12:15 51.64346 -1.22840 14187 ft 379 kts 148°
2026-05-04 12:15 51.62141 -1.20535 14046 ft 376 kts 148°
2026-05-04 12:15 51.59950 -1.18256 13900 ft 374 kts 148°
2026-05-04 12:16 51.59206 -1.17484 13862 ft 374 kts 148°
2026-05-04 12:16 51.55578 -1.13725 13590 ft 371 kts 148°
2026-05-04 12:16 51.53421 -1.11495 13452 ft 369 kts 148°
2026-05-04 12:16 51.51258 -1.09263 13306 ft 368 kts 149°
2026-05-04 12:17 51.49106 -1.07044 13167 ft 367 kts 149°
2026-05-04 12:17 51.46962 -1.04836 13057 ft 365 kts 149°
2026-05-04 12:17 51.44837 -1.02649 13024 ft 361 kts 149°
2026-05-04 12:17 51.42716 -1.00470 12779 ft 364 kts 149°
2026-05-04 12:18 51.40617 -0.98315 12651 ft 363 kts 149°
2026-05-04 12:18 51.38482 -0.96126 12486 ft 363 kts 149°
2026-05-04 12:18 51.36356 -0.93948 12346 ft 363 kts 149°
2026-05-04 12:18 51.34225 -0.91767 12201 ft 362 kts 149°
2026-05-04 12:19 51.32239 -0.89293 12045 ft 365 kts 134°
2026-05-04 12:19 51.30793 -0.86025 11943 ft 365 kts 122°
2026-05-04 12:19 51.29527 -0.82516 11801 ft 365 kts 121°
2026-05-04 12:19 51.28280 -0.78974 11679 ft 365 kts 121°
2026-05-04 12:20 51.27034 -0.75416 11408 ft 370 kts 121°
2026-05-04 12:20 51.25766 -0.71796 11051 ft 375 kts 121°
2026-05-04 12:20 51.24491 -0.68154 10711 ft 379 kts 121°
2026-05-04 12:20 51.23378 -0.64977 10420 ft 382 kts 121°
2026-05-04 12:21 51.22250 -0.61766 10125 ft 384 kts 121°
2026-05-04 12:21 51.21072 -0.58417 9808 ft 386 kts 121°
2026-05-04 12:21 51.19787 -0.54771 9426 ft 379 kts 121°
2026-05-04 12:21 51.18508 -0.51154 9056 ft 369 kts 121°
2026-05-04 12:22 51.17264 -0.47649 8688 ft 360 kts 121°
2026-05-04 12:22 51.16040 -0.44216 8315 ft 351 kts 121°
2026-05-04 12:22 51.14842 -0.40875 8036 ft 342 kts 121°
2026-05-04 12:22 51.13673 -0.37625 7745 ft 334 kts 121°
2026-05-04 12:23 51.12528 -0.34451 7468 ft 326 kts 121°
2026-05-04 12:23 51.11307 -0.31470 7177 ft 319 kts 133°
2026-05-04 12:23 51.09541 -0.29418 6893 ft 311 kts 158°
2026-05-04 12:23 51.07459 -0.28731 6627 ft 302 kts 182°
2026-05-04 12:24 51.05498 -0.29447 6337 ft 289 kts 207°
2026-05-04 12:24 51.03939 -0.31387 6044 ft 277 kts 227°
2026-05-04 12:24 51.02730 -0.33638 5797 ft 266 kts 232°
2026-05-04 12:24 51.01946 -0.36215 5522 ft 257 kts 260°
2026-05-04 12:25 51.02042 -0.38956 5294 ft 244 kts 286°
2026-05-04 12:25 51.02579 -0.41436 4958 ft 236 kts 290°
2026-05-04 12:25 51.03160 -0.43868 4541 ft 233 kts 290°
2026-05-04 12:25 51.03936 -0.46089 4043 ft 232 kts 315°
2026-05-04 12:26 51.05310 -0.47348 3590 ft 227 kts 348°
2026-05-04 12:26 51.06844 -0.47214 3153 ft 223 kts 22°
2026-05-04 12:26 51.08071 -0.45851 2878 ft 211 kts 44°
2026-05-04 12:26 51.09094 -0.44252 2540 ft 207 kts 45°
2026-05-04 12:27 51.10098 -0.42642 2204 ft 197 kts 45°
2026-05-04 12:27 51.11011 -0.41163 2013 ft 179 kts 49°
2026-05-04 12:27 51.11502 -0.39506 2003 ft 160 kts 78°
2026-05-04 12:27 51.11900 -0.37836 1995 ft 163 kts 60°
2026-05-04 12:28 51.12363 -0.36151 1987 ft 166 kts 72°
2026-05-04 12:28 51.12680 -0.34402 1937 ft 166 kts 76°
2026-05-04 12:28 51.12947 -0.32609 1736 ft 166 kts 77°
2026-05-04 12:28 51.13185 -0.30890 1541 ft 150 kts 77°
2026-05-04 12:29 51.13397 -0.29325 1338 ft 143 kts 77°
2026-05-04 12:29 51.13599 -0.27805 1141 ft 141 kts 78°
2026-05-04 12:29 51.13805 -0.26279 889 ft 139 kts 76°
2026-05-04 12:29 51.14028 -0.24832 725 ft 134 kts 77°
2026-05-04 12:30 51.14227 -0.23359 563 ft 139 kts 77°
2026-05-04 12:30 51.14428 -0.21869 377 ft 138 kts 78°
2026-05-04 12:30 51.14628 -0.20390 221 ft 132 kts 79°
2026-05-04 12:30 51.14802 -0.19121 210 ft 98 kts 77°
2026-05-04 12:31 51.14913 -0.18320 213 ft 33 kts 78°
2026-05-04 12:31 51.14951 -0.18071 209 ft 17 kts 71°
2026-05-04 12:31 51.15005 -0.17909 215 ft 16 kts 59°
2026-05-04 12:31 51.15064 -0.17786 206 ft 11 kts 44°
2026-05-04 12:32 51.15127 -0.17762 205 ft 8 kts 352°
2026-05-04 12:32 51.15187 -0.17671 214 ft 7 kts 76°
2026-05-04 12:32 51.15201 -0.17574 209 ft 11 kts 79°
2026-05-04 12:33 51.15216 -0.17463 208 ft 7 kts 78°
2026-05-04 12:33 51.15217 -0.17457 215 ft 0 kts 78°
2026-05-04 12:34 51.15217 -0.17453 214 ft 1 kts 78°
2026-05-04 12:34 51.15223 -0.17412 207 ft 7 kts 78°
2026-05-04 12:34 51.15237 -0.17309 209 ft 12 kts 77°
2026-05-04 12:34 51.15258 -0.17148 204 ft 17 kts 78°
2026-05-04 12:35 51.15284 -0.16956 204 ft 18 kts 77°
2026-05-04 12:35 51.15307 -0.16789 213 ft 13 kts 78°
2026-05-04 12:35 51.15331 -0.16696 214 ft 9 kts 51°
2026-05-04 12:35 51.15352 -0.16635 207 ft 11 kts 74°
2026-05-04 12:36 51.15368 -0.16519 206 ft 6 kts 69°
2026-05-04 12:36 51.15399 -0.16503 204 ft 6 kts 351°
2026-05-04 12:36 51.15452 -0.16520 204 ft 6 kts 349°
2026-05-04 12:36 51.15494 -0.16528 204 ft 6 kts 355°
2026-05-04 12:37 51.15520 -0.16533 207 ft 3 kts 350°
2026-05-04 12:37 51.15532 -0.16537 213 ft 1 kts 348°
2026-05-04 12:37 51.15537 -0.16539 204 ft 1 kts 348°